Back to catalog

COSMOS 2165

AliveMilitaryPO
NORAD 21779·PAYLOAD·🇷🇺 Russia

Launched Nov 12, 1991 from Plesetsk Cosmodrome

Loading…

Next Passes (next 24 hours)

TLE

FreshSource: Space-Track

Epoch: Sep 14, 2026, 12:01 UTC

1 21779U 91077A   26257.50088315  .00000035  00000-0  13203-3 0  9992
2 21779  82.6106 175.1674 0009560 206.4466 327.8403 12.64923084608280

Track COSMOS 2165 in real time with AllMySat

Download on the App Store